Location: Newark
(50.2306°N, 14.0814°E)
Time: 12:58:46
(UTC+00:00)

N. Korean satellite - Pass Details

Date: 10 December 2019
Orbit: 454 x 508 km, 97.2° (Epoch: 17 January)

Event Time Altitude Azimuth Distance (km) Brightness Sun altitude
Rises 04:58:44 0° 14° (NNE) 2,562 10.2 -17.0°
Reaches altitude 10° 05:00:50 10° 16° (NNE) 1,667 9.3 -16.7°
Maximum altitude 05:04:24 75° 102° (ESE) 496 6.7 -16.1°
Drops below altitude 10° 05:07:53 10° 189° (S) 1,622 9.3 -15.6°
Sets 05:09:54 0° 191° (S) 2,485 10.3 -15.3°
